TimeCST,TemperatureF,Dew PointF,Humidity,Sea Level PressureIn,VisibilityMPH,Wind Direction,Wind SpeedMPH,Gust SpeedMPH,PrecipitationIn,Events,Conditions,WindDirDegrees,DateUTC
12:15 AM,29.3,26.6,90,30.02,10.0,North,17.3,25.3,N/A,,Overcast,360,2011-12-22 06:15:00
12:35 AM,29.1,24.1,81,30.04,10.0,North,20.7,31.1,N/A,,Overcast,10,2011-12-22 06:35:00
12:55 AM,28.6,22.3,77,30.04,10.0,North,19.6,26.5,N/A,,Overcast,10,2011-12-22 06:55:00
1:15 AM,28.2,21.2,75,30.05,10.0,North,21.9,31.1,N/A,,Overcast,10,2011-12-22 07:15:00
1:55 AM,26.8,20.5,77,30.08,10.0,North,18.4,27.6,N/A,,Overcast,360,2011-12-22 07:55:00
2:15 AM,25.9,19.9,78,30.09,10.0,North,19.6,27.6,N/A,,Overcast,360,2011-12-22 08:15:00
2:35 AM,25.3,18.9,76,30.10,10.0,North,21.9,27.6,N/A,,Overcast,360,2011-12-22 08:35:00
2:55 AM,24.1,17.6,76,30.11,10.0,North,18.4,-,N/A,,Overcast,360,2011-12-22 08:55:00
3:15 AM,23.7,18.3,80,30.13,10.0,North,13.8,-,N/A,,Overcast,360,2011-12-22 09:15:00
3:35 AM,23.4,18.5,82,30.13,10.0,North,15.0,20.7,N/A,,Overcast,360,2011-12-22 09:35:00
3:55 AM,23.0,18.3,82,30.13,10.0,North,16.1,-,N/A,,Overcast,360,2011-12-22 09:55:00
4:15 AM,22.8,18.3,83,30.14,10.0,North,15.0,-,N/A,,Scattered Clouds,360,2011-12-22 10:15:00
4:35 AM,22.3,18.0,83,30.15,10.0,North,18.4,23.0,N/A,,Scattered Clouds,10,2011-12-22 10:35:00
4:55 AM,22.1,17.6,83,30.16,10.0,North,16.1,-,N/A,,Scattered Clouds,360,2011-12-22 10:55:00
5:35 AM,21.9,16.7,80,30.19,10.0,North,15.0,-,N/A,,Clear,10,2011-12-22 11:35:00
5:55 AM,21.6,16.7,82,30.19,10.0,North,15.0,20.7,N/A,,Clear,360,2011-12-22 11:55:00
6:15 AM,21.2,16.0,80,30.20,10.0,North,18.4,24.2,N/A,,Clear,10,2011-12-22 12:15:00
6:35 AM,21.0,14.2,75,30.21,10.0,North,17.3,23.0,N/A,,Clear,10,2011-12-22 12:35:00
6:55 AM,20.3,13.1,74,30.21,10.0,North,17.3,26.5,N/A,,Clear,360,2011-12-22 12:55:00
7:15 AM,19.4,12.4,74,30.22,10.0,North,18.4,24.2,N/A,,Clear,360,2011-12-22 13:15:00
7:35 AM,19.0,11.7,73,30.23,10.0,North,17.3,21.9,N/A,,Clear,10,2011-12-22 13:35:00
8:15 AM,18.0,11.1,75,30.24,10.0,North,18.4,21.9,N/A,,Clear,360,2011-12-22 14:15:00
8:35 AM,18.1,11.1,74,30.26,10.0,North,15.0,23.0,N/A,,Clear,360,2011-12-22 14:35:00
8:55 AM,18.7,11.3,73,30.28,10.0,North,17.3,21.9,N/A,,Clear,360,2011-12-22 14:55:00
9:35 AM,19.6,11.7,71,30.30,10.0,North,17.3,25.3,N/A,,Clear,360,2011-12-22 15:35:00
9:55 AM,20.1,11.7,70,30.32,10.0,North,16.1,26.5,N/A,,Clear,360,2011-12-22 15:55:00
10:15 AM,20.5,11.8,69,30.32,10.0,North,15.0,20.7,N/A,,Clear,10,2011-12-22 16:15:00
10:35 AM,21.0,12.4,69,30.32,10.0,North,18.4,-,N/A,,Clear,10,2011-12-22 16:35:00
10:55 AM,21.6,13.1,70,30.32,10.0,North,16.1,-,N/A,,Clear,350,2011-12-22 16:55:00
11:15 AM,21.9,13.3,69,30.32,10.0,North,16.1,26.5,N/A,,Clear,360,2011-12-22 17:15:00
11:35 AM,22.5,13.8,69,30.31,10.0,North,16.1,23.0,N/A,,Clear,360,2011-12-22 17:35:00
11:55 AM,23.0,14.2,69,30.31,10.0,North,21.9,-,N/A,,Clear,350,2011-12-22 17:55:00
12:15 PM,23.4,13.8,67,30.31,10.0,North,18.4,24.2,N/A,,Clear,360,2011-12-22 18:15:00
12:35 PM,23.9,14.4,67,30.31,10.0,North,20.7,27.6,N/A,,Clear,350,2011-12-22 18:35:00
12:55 PM,24.1,14.4,66,30.31,10.0,North,17.3,-,N/A,,Clear,350,2011-12-22 18:55:00
1:15 PM,24.4,14.0,65,30.31,10.0,North,21.9,26.5,N/A,,Clear,350,2011-12-22 19:15:00
1:35 PM,24.6,14.0,64,30.31,10.0,North,20.7,-,N/A,,Clear,350,2011-12-22 19:35:00
1:55 PM,24.8,14.2,64,30.31,10.0,North,13.8,21.9,N/A,,Clear,360,2011-12-22 19:55:00
2:15 PM,25.2,14.4,64,30.31,10.0,NNW,16.1,-,N/A,,Clear,340,2011-12-22 20:15:00
2:35 PM,25.7,14.4,62,30.31,10.0,NNW,17.3,-,N/A,,Clear,340,2011-12-22 20:35:00
2:55 PM,25.7,13.8,61,30.30,10.0,NNW,15.0,-,N/A,,Clear,340,2011-12-22 20:55:00
3:35 PM,25.7,14.0,61,30.32,10.0,North,11.5,-,N/A,,Clear,350,2011-12-22 21:35:00
3:55 PM,25.3,13.8,62,30.32,10.0,North,9.2,-,N/A,,Clear,350,2011-12-22 21:55:00
4:15 PM,24.8,14.0,64,30.33,10.0,North,8.1,-,N/A,,Clear,350,2011-12-22 22:15:00
4:35 PM,23.4,14.0,67,30.32,10.0,North,5.8,-,N/A,,Clear,350,2011-12-22 22:35:00
4:55 PM,21.0,13.3,72,30.33,10.0,North,5.8,-,N/A,,Clear,350,2011-12-22 22:55:00
5:15 PM,19.8,12.9,75,30.33,10.0,NNW,4.6,-,N/A,,Clear,330,2011-12-22 23:15:00
5:35 PM,19.8,12.7,74,30.33,10.0,NNW,4.6,-,N/A,,Clear,330,2011-12-22 23:35:00
5:55 PM,20.3,13.3,74,30.33,10.0,NNW,3.5,-,N/A,,Clear,330,2011-12-22 23:55:00
6:15 PM,20.7,13.8,75,30.33,10.0,NNW,3.5,-,N/A,,Clear,330,2011-12-23 00:15:00
6:35 PM,20.1,13.8,77,30.33,10.0,Calm,Calm,-,N/A,,Clear,0,2011-12-23 00:35:00
6:55 PM,20.3,13.8,76,30.34,10.0,NW,3.5,-,N/A,,Clear,310,2011-12-23 00:55:00
7:15 PM,19.4,12.9,76,30.34,10.0,NW,5.8,-,N/A,,Clear,310,2011-12-23 01:15:00
7:35 PM,16.0,11.1,81,30.34,10.0,West,6.9,-,N/A,,Clear,280,2011-12-23 01:35:00
8:15 PM,14.2,10.6,86,30.34,10.0,West,8.1,-,N/A,,Clear,270,2011-12-23 02:15:00
8:35 PM,14.7,11.1,86,30.35,10.0,West,10.4,-,N/A,,Clear,270,2011-12-23 02:35:00
9:15 PM,14.4,10.6,85,30.35,10.0,West,9.2,-,N/A,,Clear,270,2011-12-23 03:15:00
9:35 PM,14.0,10.4,86,30.35,10.0,West,10.4,-,N/A,,Clear,270,2011-12-23 03:35:00
9:55 PM,14.0,10.8,87,30.35,10.0,West,11.5,-,N/A,,Clear,270,2011-12-23 03:55:00
10:15 PM,13.6,10.6,88,30.35,10.0,West,10.4,-,N/A,,Clear,270,2011-12-23 04:15:00
10:35 PM,12.9,10.2,89,30.35,10.0,West,10.4,-,N/A,,Clear,270,2011-12-23 04:35:00
10:55 PM,12.4,9.9,90,30.35,10.0,West,10.4,-,N/A,,Clear,270,2011-12-23 04:55:00
11:15 PM,12.0,9.5,90,30.35,10.0,West,9.2,-,N/A,,Clear,260,2011-12-23 05:15:00
11:35 PM,13.1,10.2,88,30.35,10.0,WSW,8.1,-,N/A,,Clear,250,2011-12-23 05:35:00
11:55 PM,13.5,10.0,86,30.35,10.0,WSW,8.1,-,N/A,,Clear,250,2011-12-23 05:55:00